Manitowoc, WI

4:58 PM CST on February 21, 2017 (GMT -0600)
Manitowoc County

Weather History for KMTW - December, 2013

Change the Weather History Date:

Friday, December 27, 2013

  Actual Average Record
Temperature  
Mean Temperature 21 °F -  
Max Temperature 37 °F 27 °F 44 °F (2008)
Min Temperature 5 °F 11 °F -9 °F (1950)
Degree Days  
Heating Degree Days 44    
Moisture  
Dew Point 18 °F    
Average Humidity 79    
Maximum Humidity 91    
Minimum Humidity 67    
Precipitation  
Precipitation 0.00 in - - ()
Sea Level Pressure  
Sea Level Pressure 30.16 in    
Wind  
Wind Speed 5 mph (SW)    
Max Wind Speed 17 mph    
Max Gust Speed 24 mph    
Visibility 8 miles    
Events      
Averages and records for this station are not official NWS values.
T = Trace of Precipitation, MM = Missing Value Source: NWS Daily Summary

Daily Weather History Graph

Daily Weather History Graph

Search for Another Location

Airport or City:

Trip Planner

Search our weather history database for the weather conditions in past years. The results will help you decide how hot, cold, wet, or windy it might be!

Date:

Astronomy

Dec. 27, 2013 Rise Set
Actual Time 7:25 AM CST 4:18 PM CST
Civil Twilight 6:51 AM CST 4:52 PM CST
Nautical Twilight 6:15 AM CST 5:28 PM CST
Astronomical Twilight 5:40 AM CST 6:03 PM CST
Moon 1:49 AM CST (12/27) 12:35 PM CST (12/27)
Length of Visible Light 10h 00m
Length of Day
8h 53m
Waning Crescent, 28% of the Moon is Illuminated
Dec 27
Waning Crescent
Jan 1
New
Jan 7
First Quarter
Jan 15
Full
Jan 23
Last Quarter

Hourly Weather History & Observations

Time (CST) Temp. Windchill Dew Point Humidity Pressure Visibility Wind Dir Wind Speed Gust Speed Precip Events Conditions
12:56 AM 19.0 °F 13.9 °F 15.1 °F 85% 30.27 in 10.0 mi NNW 3.5 mph - N/A   Overcast
1:56 AM 15.1 °F - 10.9 °F 84% 30.29 in 6.0 mi Calm Calm - N/A   Mostly Cloudy
2:56 AM 10.9 °F - 7.0 °F 84% 30.30 in 3.0 mi Calm Calm - N/A   Clear
3:56 AM 8.1 °F - 5.0 °F 87% 30.29 in 5.0 mi Calm Calm - N/A   Clear
4:56 AM 6.1 °F - 3.9 °F 91% 30.30 in 5.0 mi Calm Calm - N/A   Clear
5:56 AM 5.0 °F - 1.0 °F 84% 30.30 in 7.0 mi Calm Calm - N/A   Clear
6:56 AM 5.0 °F -4.1 °F 1.9 °F 87% 30.30 in 6.0 mi WSW 4.6 mph - N/A   Clear
7:56 AM 6.1 °F - 3.0 °F 87% 30.30 in 5.0 mi Calm Calm - N/A   Clear
8:56 AM 12.9 °F 5.2 °F 10.0 °F 88% 30.30 in 5.0 mi WSW 4.6 mph - N/A   Clear
9:56 AM 23.0 °F 18.4 °F 19.9 °F 88% 30.30 in 9.0 mi WSW 3.5 mph - N/A   Clear
10:56 AM 27.0 °F 17.3 °F 21.0 °F 78% 30.26 in 9.0 mi SSW 10.4 mph - N/A   Clear
11:56 AM 28.9 °F 19.8 °F 23.0 °F 78% 30.21 in 6.0 mi SSW 10.4 mph - N/A   Haze
12:56 PM 30.0 °F 21.1 °F 24.1 °F 79% 30.16 in 6.0 mi SSW 10.4 mph - N/A   Haze
1:56 PM 32.0 °F 23.0 °F 25.0 °F 75% 30.12 in 7.0 mi SSW 11.5 mph - N/A   Clear
2:56 PM 33.1 °F 24.9 °F 26.1 °F 75% 30.09 in 9.0 mi SSW 10.4 mph - N/A   Clear
3:56 PM 34.0 °F 25.5 °F 27.0 °F 75% 30.06 in 10.0 mi SSW 11.5 mph - N/A   Clear
4:56 PM 33.1 °F 23.9 °F 26.1 °F 75% 30.01 in 10.0 mi South 12.7 mph - N/A   Partly Cloudy
5:56 PM 35.1 °F 27.4 °F 27.0 °F 72% 30.00 in 10.0 mi SSW 10.4 mph - N/A   Overcast
6:56 PM 37.0 °F 28.1 °F 27.0 °F 67% 29.99 in 10.0 mi WSW 15.0 mph 24.2 mph N/A   Partly Cloudy
7:56 PM 36.0 °F 26.0 °F 27.0 °F 70% 29.99 in 10.0 mi WSW 17.3 mph 23.0 mph N/A   Clear
8:56 PM 36.0 °F 27.5 °F 27.0 °F 70% 30.00 in 10.0 mi West 12.7 mph 20.7 mph N/A   Clear
9:56 PM 36.0 °F 27.5 °F 28.0 °F 73% 30.01 in 10.0 mi West 12.7 mph 19.6 mph N/A   Clear
10:56 PM 34.0 °F 25.0 °F 27.0 °F 75% 30.03 in 10.0 mi West 12.7 mph - N/A   Clear
11:56 PM 34.0 °F 26.0 °F 28.0 °F 79% 30.04 in 10.0 mi West 10.4 mph - N/A   Clear